WA5GP Weather Reports


Display with metric or nautical units.
time (UTC)temp
F
wind
direction
speed
MPH
gust
MPH
rain 1hr
in
rain 24hr
in
rain mn
in
humidity
%
barometer
mb
20260506101524 51 39 5.0 12.0 0.00 0.00 0.00 83 1006.0
20260506100004 51 46 3.0 12.0 0.00 0.00 0.00 82 1005.9
20260506094501 51 19 3.0 15.0 0.00 0.00 0.00 82 1005.7
20260506093102 51 40 7.0 14.0 0.00 0.00 0.00 82 1005.4
20260506091559 51 42 5.0 12.0 0.00 0.00 0.00 83 1004.9
20260506090041 51 37 2.0 8.0 0.00 0.00 0.00 82 1004.7
20260506084550 52 34 2.0 7.0 0.00 0.00 0.00 84 1004.6
20260506083049 51 25 5.0 9.0 0.00 0.00 0.00 86 1004.7
20260506081551 51 12 2.0 7.0 0.00 0.00 0.00 85 1004.5
20260506073025 52 52 2.0 7.0 0.00 0.00 0.00 83 1004.3
20260506071531 52 18 3.0 7.0 0.00 0.00 0.00 84 1004.6
20260506061529 52 355 3.0 5.0 0.00 0.00 0.00 86 1004.0
20260506044550 54 60 1.0 4.0 0.00 0.00 0.00 81 1003.5
20260506043041 55 47 1.0 5.0 0.00 0.00 0.00 81 1003.6
20260506041546 55 49 3.0 10.0 0.00 0.00 0.00 80 1003.5
20260506040047 55 54 1.0 5.0 0.00 0.00 0.00 80 1003.4
20260506034521 56 353 2.0 5.0 0.00 0.00 0.00 81 1003.5
20260506033015 56 42 1.0 4.0 0.00 0.00 0.00 82 1003.4
20260506031529 56 352 1.0 12.0 0.00 0.00 0.00 81 1003.1
20260506030055 57 347 5.0 13.0 0.00 0.00 0.00 81 1002.7
20260506024601 57 19 8.0 16.0 0.00 0.00 0.00 80 1002.6
20260506023056 58 54 6.0 16.0 0.00 0.00 0.00 80 1002.2
20260506021555 59 346 4.0 11.0 0.00 0.00 0.00 79 1001.6
20260506020032 60 349 9.0 15.0 0.00 0.00 0.00 77 1001.3
20260506014529 61 19 8.0 17.0 0.00 0.00 0.00 76 1000.8
20260506013016 62 351 7.0 15.0 0.00 0.00 0.00 75 1000.2
20260506011516 64 60 8.0 15.0 0.00 0.00 0.00 72 1000.0
20260506010058 67 358 7.0 19.0 0.00 0.00 0.00 69 999.7
20260506004548 68 7 8.0 13.0 0.00 0.00 0.00 65 999.2
20260506003043 70 18 5.0 16.0 0.00 0.00 0.00 64 998.8
20260506001545 70 13 4.0 13.0 0.00 0.00 0.00 63 998.8
20260506000033 71 10 7.0 14.0 0.00 0.00 0.00 61 998.6
20260505234539 71 349 7.0 17.0 0.00 0.00 0.00 62 999.0
20260505233043 71 349 9.0 15.0 0.00 0.00 0.00 61 998.9
20260505231553 72 8 7.0 18.0 0.00 0.00 0.00 61 998.8
20260505230033 73 356 9.0 18.0 0.00 0.00 0.00 61 998.7
20260505224532 73 23 9.0 16.0 0.00 0.00 0.00 61 998.4
20260505223039 73 8 9.0 18.0 0.00 0.00 0.00 62 998.2
20260505221537 74 15 7.0 15.0 0.00 0.00 0.00 59 998.1
20260505220019 75 23 8.0 18.0 0.00 0.00 0.00 59 998.2
20260505214527 76 34 9.0 15.0 0.00 0.00 0.00 60 998.4
20260505213026 77 343 8.0 14.0 0.00 0.00 0.00 60 998.1
20260505211527 78 13 9.0 15.0 0.00 0.00 0.00 60 997.9
20260505210014 78 351 7.0 14.0 0.00 0.00 0.00 58 997.9
20260505204511 79 10 9.0 16.0 0.00 0.00 0.00 58 998.0
20260505203015 80 32 8.0 13.0 0.00 0.00 0.00 57 998.2
20260505201517 80 345 10.0 17.0 0.00 0.00 0.00 61 998.1
20260505200003 80 7 8.0 17.0 0.00 0.00 0.00 60 998.2
20260505194507 80 341 9.0 16.0 0.00 0.00 0.00 59 998.1
20260505193010 82 359 9.0 15.0 0.00 0.00 0.00 51 997.9
20260505191511 81 3 7.0 17.0 0.00 0.00 0.00 51 998.2
20260505184600 82 360 10.0 18.0 0.00 0.00 0.00 44 998.0
20260505183102 83 338 10.0 20.0 0.00 0.00 0.00 40 998.0
20260505181502 85 300 5.0 12.0 0.00 0.00 0.00 48 997.8
20260505180042 84 303 5.0 10.0 0.00 0.00 0.00 51 997.7
20260505174543 84 282 3.0 11.0 0.00 0.00 0.00 55 997.5
20260505173139 83 237 5.0 13.0 0.00 0.00 0.00 61 997.5
20260505171539 82 237 4.0 12.0 0.00 0.00 0.00 63 997.4
20260505170019 81 252 3.0 12.0 0.00 0.00 0.00 68 997.5
20260505164516 81 257 5.0 9.0 0.00 0.00 0.00 66 997.4
20260505163012 80 222 3.0 9.0 0.00 0.00 0.00 70 997.3
20260505161507 79 245 4.0 11.0 0.00 0.00 0.00 70 997.2
20260505153052 78 259 4.0 16.0 0.00 0.00 0.00 71 996.9
20260505151551 77 213 4.0 14.0 0.00 0.00 0.00 72 996.8
20260505124516 70 223 5.0 9.0 0.00 0.00 0.00 82 996.1
20260505123021 70 233 4.0 10.0 0.00 0.00 0.00 82 995.9
20260505121523 70 227 5.0 12.0 0.00 0.00 0.00 82 995.9
20260505120007 70 266 6.0 13.0 0.00 0.00 0.00 82 995.8
20260505114505 70 238 6.0 11.0 0.00 0.00 0.00 81 995.7
20260505113007 70 243 5.0 9.0 0.00 0.00 0.00 81 995.7
20260505111512 71 209 4.0 12.0 0.00 0.00 0.00 81 995.5
20260505110116 70 188 4.0 11.0 0.00 0.00 0.00 80 995.5